FW9794 Weather Reports


time (UTC)temp
C
wind
direction
speed
KPH
gust
KPH
rain 1hr
cm
rain 24hr
cm
rain mn
cm
humidity
%
barometer
mb
20260906101047 21 0 0.0 0.0 0.00 0.00 0.00 98 1011.9
20260906100548 21 0 0.0 0.0 0.00 0.00 0.00 98 1012.1
20260906100105 21 0 0.0 0.0 0.00 0.00 0.00 98 1012.0
20260906095550 21 0 0.0 0.0 0.00 0.00 0.00 98 1012.0
20260906095047 21 0 0.0 0.0 0.00 0.00 0.00 97 1012.0
20260906094606 21 0 0.0 0.0 0.00 0.00 0.00 97 1012.1
20260906094049 21 0 0.0 1.6 0.00 0.00 0.00 97 1012.1
20260906093547 21 0 0.0 1.6 0.00 0.00 0.00 97 1012.2
20260906093118 21 0 0.0 1.6 0.00 0.00 0.00 97 1012.2
20260906092549 21 0 0.0 0.0 0.00 0.00 0.00 97 1012.1
20260906092047 21 0 0.0 1.6 0.00 0.00 0.00 97 1012.2
20260906091605 21 0 0.0 1.6 0.00 0.00 0.00 97 1012.2
20260906091048 21 0 0.0 3.2 0.00 0.00 0.00 97 1012.2
20260906090548 22 0 0.0 4.8 0.00 0.00 0.00 97 1012.2
20260906090128 22 360 0.0 4.8 0.00 0.00 0.00 97 1012.1
20260906085547 22 0 0.0 6.4 0.00 0.00 0.00 97 1012.1
20260906085047 22 360 1.6 6.4 0.00 0.00 0.00 97 1012.0
20260906084604 22 0 0.0 4.8 0.00 0.00 0.00 98 1011.9
20260906084048 22 360 1.6 4.8 0.00 0.00 0.00 98 1011.8
20260906083549 22 360 0.0 6.4 0.00 0.00 0.00 98 1012.1
20260906083103 22 360 1.6 6.4 0.00 0.00 0.00 98 1012.0
20260906082549 21 360 0.0 0.0 0.00 0.00 0.00 97 1011.9
20260906082050 22 0 0.0 0.0 0.00 0.00 0.00 97 1012.0
20260906081604 22 0 0.0 0.0 0.00 0.00 0.00 97 1012.0
20260906081051 22 0 0.0 0.0 0.00 0.00 0.00 97 1012.0
20260906080548 22 0 0.0 0.0 0.00 0.00 0.00 97 1011.9
20260906080105 22 0 0.0 0.0 0.00 0.00 0.00 97 1011.8
20260906075547 22 0 0.0 0.0 0.00 0.00 0.00 97 1011.9
20260906075047 22 0 0.0 0.0 0.00 0.00 0.00 97 1011.9
20260906074604 22 0 0.0 0.0 0.00 0.00 0.00 97 1011.7
20260906074049 22 0 0.0 0.0 0.00 0.00 0.00 97 1011.5
20260906073550 22 0 0.0 0.0 0.00 0.00 0.00 97 1011.5
20260906073101 22 0 0.0 0.0 0.00 0.00 0.00 97 1011.4
20260906072547 22 0 0.0 1.6 0.00 0.00 0.00 97 1011.5
20260906072050 22 0 0.0 1.6 0.00 0.00 0.00 97 1011.5
20260906071609 22 0 0.0 1.6 0.00 0.00 0.00 97 1011.4
20260906071050 22 0 0.0 1.6 0.00 0.00 0.00 97 1011.3
20260906070550 22 0 0.0 3.2 0.00 0.00 0.00 97 1011.5
20260906070105 22 0 0.0 3.2 0.00 0.00 0.00 97 1011.5
20260906065550 22 0 0.0 3.2 0.00 0.00 0.00 97 1011.6
20260906065047 22 360 0.0 4.8 0.00 0.00 0.00 97 1011.5
20260906064558 22 360 1.6 6.4 0.00 0.00 0.00 97 1011.5
20260906064050 22 360 1.6 6.4 0.00 0.00 0.00 97 1011.5
20260906063549 22 360 0.0 4.8 0.00 0.00 0.00 97 1011.4
20260906063102 22 0 0.0 0.0 0.00 0.00 0.00 96 1011.5
20260906062549 22 0 0.0 0.0 0.00 0.00 0.00 96 1011.6
20260906062052 22 0 0.0 0.0 0.00 0.00 0.00 96 1011.6
20260906061607 22 0 0.0 1.6 0.00 0.00 0.00 95 1011.6
20260906061049 22 0 0.0 1.6 0.00 0.00 0.00 95 1011.6
20260906060547 22 360 0.0 1.6 0.00 0.00 0.00 95 1011.7
20260906060104 22 0 0.0 1.6 0.00 0.00 0.00 95 1011.8
20260906055549 23 360 0.0 1.6 0.00 0.00 0.00 95 1011.8
20260906055049 23 0 0.0 0.0 0.00 0.00 0.00 96 1012.0
20260906054604 23 0 0.0 0.0 0.00 0.00 0.00 95 1012.0
20260906054053 23 0 0.0 0.0 0.00 0.00 0.00 96 1012.1
20260906053550 22 0 0.0 0.0 0.00 0.00 0.00 95 1012.1
20260906053101 23 0 0.0 0.0 0.00 0.00 0.00 95 1012.2
20260906052549 23 0 0.0 0.0 0.00 0.00 0.00 94 1012.3
20260906052048 23 0 0.0 0.0 0.00 0.00 0.00 95 1012.3
20260906051601 23 0 0.0 0.0 0.00 0.00 0.00 94 1012.4
20260906051049 23 0 0.0 0.0 0.00 0.00 0.00 94 1012.3
20260906050549 23 0 0.0 0.0 0.00 0.00 0.00 94 1012.3
20260906050133 23 0 0.0 0.0 0.00 0.00 0.00 94 1012.3
20260906045548 23 0 0.0 0.0 0.00 0.00 0.00 93 1012.2
20260906045047 23 0 0.0 0.0 0.00 0.00 0.00 93 1012.3
20260906044602 23 0 0.0 0.0 0.00 0.00 0.00 93 1012.5
20260906044048 23 0 0.0 0.0 0.00 0.00 0.00 92 1012.5
20260906043549 23 0 0.0 0.0 0.00 0.00 0.00 93 1012.8
20260906043109 23 0 0.0 0.0 0.00 0.00 0.00 93 1012.7
20260906042552 23 0 0.0 0.0 0.00 0.00 0.00 92 1012.7
20260906042053 23 0 0.0 0.0 0.00 0.00 0.00 92 1012.7
20260906041605 23 0 0.0 0.0 0.00 0.00 0.00 92 1012.5
20260906041048 23 0 0.0 0.0 0.00 0.00 0.00 92 1012.5
20260906040547 23 0 0.0 0.0 0.00 0.00 0.00 92 1012.5
20260906040117 23 0 0.0 0.0 0.00 0.00 0.00 92 1012.6
20260906035548 23 0 0.0 0.0 0.00 0.00 0.00 92 1012.6
20260906035050 23 0 0.0 0.0 0.00 0.00 0.00 91 1012.5
20260906034606 24 0 0.0 0.0 0.00 0.00 0.00 91 1012.4
20260906034050 24 0 0.0 0.0 0.00 0.00 0.00 91 1012.4
20260906033549 24 0 0.0 0.0 0.00 0.00 0.00 91 1012.4
20260906033108 24 0 0.0 0.0 0.00 0.00 0.00 91 1012.5
20260906032549 24 0 0.0 0.0 0.00 0.00 0.00 90 1012.4
20260906032049 24 0 0.0 0.0 0.00 0.00 0.00 91 1012.5
20260906031605 24 0 0.0 0.0 0.00 0.00 0.00 90 1012.4
20260906031049 24 0 0.0 0.0 0.00 0.00 0.00 90 1012.6
20260906030548 24 0 0.0 0.0 0.00 0.00 0.00 91 1012.6
20260906030135 24 0 0.0 0.0 0.00 0.00 0.00 91 1012.4
20260906025547 24 0 0.0 0.0 0.00 0.00 0.00 91 1012.5
20260906025049 24 0 0.0 0.0 0.00 0.00 0.00 91 1012.5
20260906024628 24 0 0.0 0.0 0.00 0.00 0.00 90 1012.6
20260906024047 24 0 0.0 0.0 0.00 0.00 0.00 90 1012.4
20260906023547 24 0 0.0 0.0 0.00 0.00 0.00 90 1012.3
20260906023126 24 0 0.0 0.0 0.00 0.00 0.00 89 1012.2
20260906022551 25 0 0.0 0.0 0.00 0.00 0.00 90 1012.3
20260906022045 25 0 0.0 0.0 0.00 0.00 0.00 89 1012.3
20260906021614 25 0 0.0 0.0 0.00 0.00 0.00 89 1012.4
20260906021046 25 0 0.0 0.0 0.00 0.00 0.00 88 1012.3
20260906020546 25 0 0.0 0.0 0.00 0.00 0.00 89 1012.3
20260906020104 25 0 0.0 0.0 0.00 0.00 0.00 88 1012.2
20260906015545 25 0 0.0 0.0 0.00 0.00 0.00 88 1012.2
20260906015047 25 0 0.0 0.0 0.00 0.00 0.00 88 1012.2
20260906014614 25 0 0.0 1.6 0.00 0.00 0.00 88 1012.1
20260906014046 25 0 0.0 3.2 0.00 0.00 0.00 88 1012.2
20260906013547 25 0 0.0 3.2 0.00 0.00 0.00 88 1012.4
20260906013104 25 360 0.0 4.8 0.00 0.00 0.00 88 1012.5
20260906012547 25 360 0.0 8.0 0.00 0.00 0.00 87 1012.4
20260906012046 25 360 3.2 8.0 0.00 0.00 0.00 88 1012.3
20260906011607 25 360 3.2 8.0 0.00 0.00 0.00 88 1012.4
20260906011046 25 360 3.2 6.4 0.00 0.00 0.00 86 1012.1
20260906010545 26 360 0.0 4.8 0.00 0.00 0.00 86 1012.0
20260906010105 26 360 3.2 4.8 0.00 0.00 0.00 85 1011.9
20260906005547 26 0 0.0 0.0 0.00 0.00 0.00 84 1011.8
20260906005047 26 0 0.0 0.0 0.00 0.00 0.00 83 1011.6
20260906004601 26 0 0.0 0.0 0.00 0.00 0.00 82 1011.6
20260906004045 26 0 0.0 0.0 0.00 0.00 0.00 82 1011.8
20260906003546 27 0 0.0 0.0 0.00 0.00 0.00 81 1011.9
20260906003110 27 0 0.0 0.0 0.00 0.00 0.00 80 1012.1
20260906002548 27 0 0.0 0.0 0.00 0.00 0.00 80 1012.0
20260906002045 27 0 0.0 0.0 0.00 0.00 0.00 80 1011.9
20260906001606 27 0 0.0 0.0 0.00 0.00 0.00 80 1011.9
20260906001047 27 0 0.0 0.0 0.00 0.00 0.00 80 1011.8
20260906000545 28 0 0.0 4.8 0.00 0.00 0.00 81 1011.8
20260906000105 28 0 0.0 4.8 0.00 0.00 0.00 78 1011.9
20260905235545 28 0 0.0 4.8 0.00 0.00 0.00 78 1011.8
20260905235047 28 360 0.0 3.2 0.00 0.00 0.00 79 1011.8
20260905234614 28 0 0.0 4.8 0.00 0.00 0.00 80 1011.7
20260905234048 28 268 0.0 4.8 0.00 0.00 0.00 80 1011.7
20260905233547 29 0 0.0 4.8 0.00 0.00 0.00 79 1011.8
20260905233106 29 0 0.0 4.8 0.00 0.00 0.00 79 1011.8
20260905232545 29 0 0.0 6.4 0.00 0.00 0.00 79 1011.7
20260905232045 30 199 0.0 8.0 0.00 0.00 0.00 78 1011.8
20260905231558 30 185 1.6 8.0 0.00 0.00 0.00 78 1011.7
20260905231045 30 0 0.0 3.2 0.00 0.00 0.00 78 1011.5
20260905230545 30 0 0.0 3.2 0.00 0.00 0.00 78 1011.5
20260905230103 30 0 0.0 3.2 0.00 0.00 0.00 76 1011.4
20260905225548 30 244 0.0 4.8 0.00 0.00 0.00 76 1011.5
20260905225047 30 260 0.0 6.4 0.00 0.00 0.00 75 1011.4
20260905224610 31 0 0.0 6.4 0.00 0.00 0.00 75 1011.4
20260905224044 31 246 1.6 6.4 0.00 0.00 0.00 76 1011.4
20260905223547 31 298 1.6 4.8 0.00 0.00 0.00 75 1011.2
20260905223107 31 124 0.0 9.7 0.00 0.00 0.00 75 1011.2
20260905222545 31 180 0.0 9.7 0.00 0.00 0.00 74 1011.2
20260905222045 31 167 3.2 11.3 0.00 0.00 0.00 73 1011.2
20260905221605 31 309 0.0 11.3 0.00 0.00 0.00 74 1011.2
20260905221047 31 251 1.6 11.3 0.00 0.00 0.00 74 1011.3
20260905220549 31 0 0.0 6.4 0.00 0.00 0.00 74 1011.4
20260905220103 31 0 0.0 6.4 0.00 0.00 0.00 73 1011.3
20260905215548 31 281 1.6 6.4 0.00 0.00 0.00 74 1011.4
20260905215046 31 142 1.6 11.3 0.00 0.00 0.00 73 1011.6
20260905214613 31 254 1.6 11.3 0.00 0.00 0.00 72 1011.7
20260905214048 31 149 4.8 11.3 0.00 0.00 0.00 72 1011.7
20260905213547 31 165 1.6 11.3 0.00 0.00 0.00 74 1011.7
20260905213117 31 0 0.0 6.4 0.00 0.00 0.00 72 1011.7
20260905212545 31 0 1.6 6.4 0.00 0.00 0.00 70 1011.6
20260905212045 31 134 1.6 4.8 0.00 0.00 0.00 71 1011.6
20260905211603 31 167 0.0 4.8 0.00 0.00 0.00 69 1011.6
20260905211047 31 0 0.0 6.4 0.00 0.00 0.00 72 1011.7
20260905210548 31 263 1.6 6.4 0.00 0.00 0.00 73 1011.9
20260905210106 31 106 1.6 4.8 0.00 0.00 0.00 72 1011.8
20260905205545 31 0 0.0 4.8 0.00 0.00 0.00 74 1011.8
20260905205049 30 95 0.0 4.8 0.00 0.00 0.00 72 1011.9
20260905204602 30 140 0.0 6.4 0.00 0.00 0.00 74 1011.9
20260905204045 30 62 1.6 6.4 0.00 0.00 0.00 74 1011.9
20260905203548 30 92 1.6 6.4 0.00 0.00 0.00 73 1012.1
20260905203056 30 169 0.0 6.4 0.00 0.00 0.00 77 1012.2
20260905202546 30 107 1.6 8.0 0.00 0.00 0.00 77 1012.3
20260905202049 30 0 1.6 9.7 0.00 0.00 0.00 78 1012.5
20260905201607 30 202 1.6 11.3 0.00 0.00 0.00 78 1012.6
20260905201046 30 178 1.6 11.3 0.00 0.00 0.00 79 1012.6
20260905200547 30 187 1.6 8.0 0.00 0.00 0.00 79 1012.4
20260905195548 30 178 3.2 11.3 0.00 0.00 0.00 80 1012.5
20260905195049 29 106 1.6 11.3 0.00 0.00 0.00 82 1012.7
20260905194603 29 181 4.8 11.3 0.00 0.00 0.00 83 1012.8
20260905194049 28 0 0.0 4.8 0.00 0.00 0.00 85 1012.9
20260905193546 28 0 0.0 4.8 0.00 0.00 0.00 87 1012.9
20260905193101 28 0 0.0 4.8 0.00 0.00 0.00 87 1012.9
20260905192550 28 0 0.0 6.4 0.00 0.00 0.00 87 1012.9
20260905192047 28 360 3.2 6.4 0.00 0.00 0.00 87 1013.0
20260905191614 27 0 0.0 0.0 0.00 0.00 0.00 87 1013.2
20260905191048 27 0 0.0 4.8 0.00 0.00 0.00 87 1013.3
20260905190551 27 0 0.0 8.0 0.00 0.00 0.00 86 1013.3
20260905185553 27 360 4.8 12.9 0.00 0.00 0.00 86 1013.5
20260905185049 27 360 4.8 12.9 0.00 0.00 0.00 86 1013.7
20260905184614 27 360 4.8 8.0 0.00 0.00 0.00 85 1013.4
20260905184047 27 360 1.6 8.0 0.00 0.00 0.00 85 1013.3
20260905183549 28 360 3.2 8.0 0.00 0.00 0.00 84 1013.1
20260905183106 28 360 1.6 8.0 0.00 0.00 0.00 84 1013.2
20260905182552 28 360 4.8 8.0 0.00 0.00 0.00 82 1013.3
20260905182053 28 360 1.6 8.0 0.00 0.00 0.00 81 1013.3
20260905181610 29 360 1.6 8.0 0.00 0.00 0.00 80 1013.3
20260905181049 30 360 4.8 8.0 0.00 0.00 0.00 77 1013.5
20260905180550 31 360 0.0 6.4 0.00 0.00 0.00 74 1013.6
20260905180108 31 0 0.0 9.7 0.00 0.00 0.00 72 1013.5
20260905175550 32 14 3.2 14.5 0.00 0.00 0.00 68 1013.9
20260905175047 32 324 3.2 16.1 0.00 0.00 0.00 65 1013.8
20260905174614 33 307 4.8 25.7 0.00 0.00 0.00 60 1013.7
20260905174050 35 13 9.7 25.7 0.00 0.00 0.00 57 1013.8
20260905173550 36 0 1.6 14.5 0.00 0.00 0.00 55 1013.8
20260905173113 37 57 6.4 16.1 0.00 0.00 0.00 54 1013.9
20260905172550 37 46 4.8 16.1 0.00 0.00 0.00 54 1013.9
20260905172051 37 59 3.2 6.4 0.00 0.00 0.00 53 1013.7
20260905171605 37 60 0.0 8.0 0.00 0.00 0.00 54 1013.6
20260905171049 37 42 3.2 8.0 0.00 0.00 0.00 57 1013.7
20260905170548 37 332 3.2 6.4 0.00 0.00 0.00 55 1014.0
20260905170106 36 45 1.6 6.4 0.00 0.00 0.00 57 1013.9
20260905165549 36 0 0.0 4.8 0.00 0.00 0.00 60 1013.9
20260905165047 35 0 1.6 4.8 0.00 0.00 0.00 58 1014.0
20260905164601 35 49 0.0 4.8 0.00 0.00 0.00 61 1014.3
20260905164047 34 17 0.0 6.4 0.00 0.00 0.00 63 1014.3
20260905163552 34 298 1.6 9.7 0.00 0.00 0.00 61 1014.2
20260905163108 34 240 1.6 9.7 0.00 0.00 0.00 61 1014.2
20260905162550 34 269 1.6 6.4 0.00 0.00 0.00 60 1014.2
20260905162047 34 215 1.6 6.4 0.00 0.00 0.00 62 1014.3
20260905161603 33 279 0.0 6.4 0.00 0.00 0.00 67 1014.4
20260905161049 33 144 1.6 6.4 0.00 0.00 0.00 65 1014.4
20260905160549 33 171 1.6 4.8 0.00 0.00 0.00 67 1014.4
20260905160105 33 0 1.6 6.4 0.00 0.00 0.00 66 1014.3
20260905155548 33 250 1.6 6.4 0.00 0.00 0.00 67 1014.3
20260905155049 33 323 3.2 6.4 0.00 0.00 0.00 65 1014.5
20260905154606 33 268 1.6 6.4 0.00 0.00 0.00 66 1014.6
20260905154051 33 0 0.0 8.0 0.00 0.00 0.00 69 1014.5
20260905153550 32 43 1.6 12.9 0.00 0.00 0.00 69 1014.5
20260905153111 32 157 1.6 12.9 0.00 0.00 0.00 72 1014.4
20260905152552 31 0 3.2 12.9 0.00 0.00 0.00 73 1014.4
20260905152049 31 84 1.6 6.4 0.00 0.00 0.00 75 1014.5
20260905151605 31 190 0.0 6.4 0.00 0.00 0.00 77 1014.7
20260905151050 30 306 1.6 6.4 0.00 0.00 0.00 77 1014.7
20260905150549 30 0 1.6 4.8 0.00 0.00 0.00 75 1014.6
20260905145550 31 0 0.0 3.2 0.00 0.00 0.00 77 1014.5
20260905145050 30 0 0.0 3.2 0.00 0.00 0.00 78 1014.6
20260905144611 30 0 0.0 4.8 0.00 0.00 0.00 77 1014.6
20260905144052 30 0 0.0 4.8 0.00 0.00 0.00 79 1014.6
20260905143553 29 331 0.0 4.8 0.00 0.00 0.00 81 1014.6
20260905143108 29 0 0.0 3.2 0.00 0.00 0.00 81 1014.6
20260905142550 28 333 0.0 6.4 0.00 0.00 0.00 83 1014.5
20260905142051 28 15 1.6 6.4 0.00 0.00 0.00 83 1014.7
20260905141615 28 336 0.0 4.8 0.00 0.00 0.00 82 1014.8
20260905141049 28 0 0.0 4.8 0.00 0.00 0.00 84 1014.7
20260905140547 27 0 0.0 4.8 0.00 0.00 0.00 85 1014.8
20260905140105 27 5 0.0 3.2 0.00 0.00 0.00 87 1014.9
20260905135550 27 0 0.0 3.2 0.00 0.00 0.00 88 1014.7
20260905135050 26 0 0.0 3.2 0.00 0.00 0.00 88 1014.8
20260905134613 26 0 0.0 4.8 0.00 0.00 0.00 89 1014.9
20260905134050 26 0 0.0 4.8 0.00 0.00 0.00 90 1015.0
20260905133551 26 23 0.0 4.8 0.00 0.00 0.00 91 1015.1
20260905133103 25 0 0.0 1.6 0.00 0.00 0.00 92 1015.0
20260905132549 25 17 0.0 1.6 0.00 0.00 0.00 92 1015.0
20260905132049 25 0 0.0 0.0 0.00 0.00 0.00 92 1015.2
20260905131608 25 0 0.0 0.0 0.00 0.00 0.00 93 1015.2
20260905131050 24 0 0.0 1.6 0.00 0.00 0.00 94 1015.3
20260905130550 24 0 0.0 3.2 0.00 0.00 0.00 95 1015.4
20260905130113 24 0 0.0 3.2 0.00 0.00 0.00 96 1015.4
20260905125550 23 0 1.6 3.2 0.00 0.00 0.00 96 1015.3
20260905125050 23 0 0.0 1.6 0.00 0.00 0.00 97 1015.3
20260905124605 23 0 0.0 3.2 0.00 0.00 0.00 97 1015.3
20260905124046 23 355 0.0 3.2 0.00 0.00 0.00 97 1015.2
20260905123549 23 0 0.0 4.8 0.00 0.00 0.00 97 1015.3
20260905123109 23 360 1.6 4.8 0.00 0.00 0.00 97 1015.2
20260905122550 22 360 0.0 3.2 0.00 0.00 0.00 98 1015.2
20260905122049 22 0 0.0 3.2 0.00 0.00 0.00 98 1015.2
20260905121605 22 360 0.0 1.6 0.00 0.00 0.00 98 1015.2
20260905121049 22 0 0.0 1.6 0.00 0.00 0.00 98 1015.2
20260905120550 22 0 0.0 1.6 0.00 0.00 0.00 98 1015.1
20260905120111 22 360 0.0 3.2 0.00 0.00 0.00 98 1015.0
20260905115552 22 0 0.0 4.8 0.00 0.00 0.00 98 1014.8
20260905115050 22 0 0.0 4.8 0.00 0.00 0.00 98 1014.7
20260905114637 22 360 1.6 4.8 0.00 0.00 0.00 98 1014.6
20260905114050 22 360 0.0 4.8 0.00 0.00 0.00 98 1014.5
20260905113550 22 360 1.6 4.8 0.00 0.00 0.00 98 1014.4
20260905113104 22 360 1.6 4.8 0.00 0.00 0.00 97 1014.4
20260905112550 22 0 0.0 4.8 0.00 0.00 0.00 97 1014.3
20260905112046 22 360 1.6 4.8 0.00 0.00 0.00 97 1014.2
20260905111605 22 360 0.0 3.2 0.00 0.00 0.00 97 1014.1
20260905111049 22 0 0.0 1.6 0.00 0.00 0.00 97 1014.2
20260905110549 22 0 0.0 1.6 0.00 0.00 0.00 97 1014.1
20260905110104 22 0 0.0 0.0 0.00 0.00 0.00 97 1014.1
20260905105549 22 0 0.0 0.0 0.00 0.00 0.00 97 1013.9
20260905105049 22 0 0.0 0.0 0.00 0.00 0.00 97 1013.8
20260905104608 22 0 0.0 0.0 0.00 0.00 0.00 97 1013.9
20260905104050 22 0 0.0 1.6 0.00 0.00 0.00 97 1013.7
20260905103545 22 0 0.0 1.6 0.00 0.00 0.00 97 1013.7
20260905103104 22 0 0.0 1.6 0.00 0.00 0.00 98 1013.7
20260905102546 22 0 0.0 0.0 0.00 0.00 0.00 97 1013.6
20260905102048 22 0 0.0 0.0 0.00 0.00 0.00 97 1013.6
20260905101604 22 0 0.0 0.0 0.00 0.00 0.00 97 1013.5